Regional Weather Roundup
Issued by NWS

Home | Current Version | Previous Version | Graphics & Text | Print | Product List | Glossary On
Versions: 1 2 3 4 5 6 7 8 9 10 11 12 13 14 15 16 17 18 19 20 21 22 23 24 25 26 27 28 29 30 31 32 33 34 35 36 37 38 39 40 41 42 43 44 45 46 47 48 49 50
854
ASUS44 KJAN 291810
RWRMS

MISSISSIPPI HOURLY WEATHER ROUNDUP
NATIONAL WEATHER SERVICE JACKSON MS
100 PM CDT TUE JUL 29 2014

NOTE: "FAIR: INDICATES FEW OR NO CLOUDS BELOW 12,000 FEET WITH NO
SIGNIFICANT WEATHER AND/OR OBSTRUCTIONS TO VISIBILITY.

MSZ001>002-007>008-010>013-018>021-025>028-034>036-291900-
NORTHWEST MISSISSIPPI

CITY           SKY/WX    TMP DP  RH WIND       PRES   REMARKS
CLARKSDALE     FAIR      81  61  50 N14       30.13F
CLEVELAND      FAIR      80  65  59 N12       30.11S
GREENWOOD      MOSUNNY   82  63  52 N9        30.09F
6HR MIN TEMP:  67; 6HR MAX TEMP:  83;

GREENVILLE     SUNNY     82  65  56 NE12      30.10F
6HR MIN TEMP:  68; 6HR MAX TEMP:  83;

GRENADA        FAIR      81  59  47 NW13G18   30.10F
OLIVE BRANCH   MOSUNNY   73  55  53 NE6       30.14F
OXFORD           N/A     75  55  50 N8        30.14S
TUNICA         CLEAR     79  57  47 N14       30.13S
$$

MSZ003>006-009-014>017-022>024-029>033-037>039-291900-
NORTHEAST MISSISSIPPI

CITY           SKY/WX    TMP DP  RH WIND       PRES   REMARKS
BELMONT        FAIR      74  56  53 N9        30.11S
COLUMBUS AFB   MOSUNNY   80  60  49 N9G18     30.09S
6HR MIN TEMP:  67; 6HR MAX TEMP:  80;

CORINTH        FAIR      75  50  41 NE8       30.12F
GOLDN TRIANGLE PTSUNNY   81  63  54 N10       30.09F
STARKVILLE     MOCLDY    79  61  53 N7        30.09S
TUPELO         MOSUNNY   77  55  46 NE15G23   30.10F
6HR MIN TEMP:  67; 6HR MAX TEMP:  79;

$$

MSZ040-058-291900-
CENTRAL MISSISSIPPI

CITY           SKY/WX    TMP DP  RH WIND       PRES   REMARKS
JACKSON INTL   MOSUNNY   88  63  43 N8        30.07F
6HR MIN TEMP:  67; 6HR MAX TEMP:  88;

JACKSON HAWKNS SUNNY     86  62  44 NW10      30.08F
6HR MIN TEMP:  69; 6HR MAX TEMP:  86;

MERIDIAN KEY   PTSUNNY   83  62  49 NW7       30.06F
6HR MIN TEMP:  67; 6HR MAX TEMP:  86;

MERIDIAN NAS   PTSUNNY   84  62  47 N8        30.06F
6HR MIN TEMP:  66; 6HR MAX TEMP:  86;

RAYMOND        FAIR      84  79  84 NW3       30.08F HX  96
VICKSBURG      SUNNY     88  64  44 VRB6      30.08F
6HR MIN TEMP:  64; 6HR MAX TEMP:  88;

$$

MSZ059>079-291900-
SOUTH MISSISSIPPI

CITY           SKY/WX    TMP DP  RH WIND       PRES   REMARKS
BROOKHAVEN     FAIR      82  64  54 N6        30.10F
COLUMBIA       FAIR      84  64  51 CALM      30.06F
HATTIESBURG    SUNNY     87  64  46 NW9       30.07F
6HR MIN TEMP:  70; 6HR MAX TEMP:  88;

MCCOMB         MOSUNNY   84  62  47 N6        30.09F
6HR MIN TEMP:  70; 6HR MAX TEMP:  85;

NATCHEZ        MOSUNNY   84  66  54 N5        30.10F
6HR MIN TEMP:  66; 6HR MAX TEMP:  84;

PINE BELT      MOSUNNY   88  61  40 NE6       30.09S
6HR MIN TEMP:  68; 6HR MAX TEMP:  88;

$$

MSZ080>082-291900-
COASTAL MISSISSIPPI

CITY           SKY/WX    TMP DP  RH WIND       PRES   REMARKS
BAY ST LOUIS   MOSUNNY  N/A N/A N/A N7        30.06F
BILOXI         MOSUNNY   87  64  46 VRB5      30.05F
6HR MIN TEMP:  74; 6HR MAX TEMP:  87;

PASCAGOULA     MOSUNNY   87  65  47 N5        30.04F
6HR MIN TEMP:  72; 6HR MAX TEMP:  87;

GULFPORT       MOSUNNY   90  63  40 N8        30.05F HX  91
6HR MIN TEMP:  76; 6HR MAX TEMP:  90;

$$



USA.gov is the U.S. government's official web portal to all federal, state and local government web resources and services.